Weather History for Midlothian, TX

Change the Weather History Date:

Sunday, May 11, 2014

  Actual Average (KRBD) Record (KRBD)
Temperature  
Mean Temperature 78 °F -  
Max Temperature 86 °F 80 °F 91 °F (1998)
Min Temperature 71 °F 61 °F 52 °F (2006)
Cooling Degree Days 13    
Growing Degree Days 28 (Base 50)    
Moisture  
Dew Point 67 °F    
Average Humidity 71    
Maximum Humidity 91    
Minimum Humidity 49    
Precipitation  
Precipitation 0.00 in - - ()
Sea Level Pressure  
Sea Level Pressure 29.79 in    
Wind  
Wind Speed 13 mph (SSE)    
Max Wind Speed 20 mph    
Max Gust Speed 29 mph    
Visibility 9 miles    
Events      
Averages and records for this station are not official NWS values.
T = Trace of Precipitation, MM = Missing Value Source: NWS Daily Summary

Daily Weather History Graph

Daily Weather History Graph

Search for Another Location

Airport:

Trip Planner

Search our weather history database for the weather conditions in past years. The results will help you decide how hot, cold, wet, or windy it might be!

Date:

Astronomy

May. 11, 2014 Rise Set
Actual Time 6:32 AM CDT 8:16 PM CDT
Civil Twilight 6:05 AM CDT 8:43 PM CDT
Nautical Twilight 5:33 AM CDT 9:15 PM CDT
Astronomical Twilight 4:59 AM CDT 9:49 PM CDT
Moon 5:23 PM CDT (5/11) 4:26 AM CDT (5/11)
Length of Visible Light 14h 37m
Length of Day
13h 43m
Waxing Gibbous, 89% of the Moon is Illuminated
May 11
Waxing Gibbous
May 14
Full
May 21
Last Quarter
May 28
New
Jun 5
First Quarter

Hourly Weather History & Observations

Time (CDT) Temp. Heat Index Dew Point Humidity Pressure Visibility Wind Dir Wind Speed Gust Speed Precip Events Conditions
12:15 AM 73.4 °F - 66.7 °F 80% 29.83 in 10.0 mi SSE 13.8 mph 18.4 mph N/A   Clear
12:35 AM 73.2 °F - 67.1 °F 81% 29.83 in 10.0 mi SSE 13.8 mph 18.4 mph N/A   Clear
12:55 AM 72.7 °F - 67.1 °F 83% 29.83 in 10.0 mi SSE 11.5 mph 18.4 mph N/A   Clear
1:15 AM 72.7 °F - 67.1 °F 83% 29.82 in 10.0 mi SSE 15.0 mph 20.7 mph N/A   Clear
1:35 AM 72.1 °F - 67.1 °F 84% 29.82 in 10.0 mi SE 13.8 mph 20.7 mph N/A   Clear
1:55 AM 71.6 °F - 67.6 °F 87% 29.82 in 10.0 mi SSE 13.8 mph 17.3 mph N/A   Clear
2:15 AM 71.1 °F - 68.0 °F 90% 29.81 in 7.0 mi SE 11.5 mph 17.3 mph N/A   Clear
2:35 AM 71.1 °F - 68.2 °F 91% 29.80 in 7.0 mi SSE 12.7 mph 20.7 mph N/A   Scattered Clouds
2:55 AM 71.6 °F - 68.4 °F 89% 29.80 in 7.0 mi SSE 15.0 mph 20.7 mph N/A   Overcast
3:15 AM 71.6 °F - 68.4 °F 89% 29.80 in 7.0 mi SSE 13.8 mph 21.9 mph N/A   Overcast
3:35 AM 71.2 °F - 68.2 °F 90% 29.80 in 7.0 mi SSE 16.1 mph 20.7 mph N/A   Overcast
3:55 AM 71.2 °F - 68.2 °F 90% 29.80 in 7.0 mi SSE 12.7 mph 17.3 mph N/A   Overcast
4:15 AM 71.1 °F - 68.0 °F 90% 29.80 in 7.0 mi SSE 13.8 mph 20.7 mph N/A   Overcast
4:35 AM 71.1 °F - 68.2 °F 91% 29.80 in 7.0 mi South 11.5 mph 16.1 mph N/A   Overcast
4:55 AM 71.2 °F - 68.2 °F 90% 29.80 in 7.0 mi SSE 10.4 mph 16.1 mph N/A   Overcast
5:15 AM 71.2 °F - 68.0 °F 89% 29.80 in 7.0 mi SSE 12.7 mph 17.3 mph N/A   Overcast
5:35 AM 71.2 °F - 68.2 °F 90% 29.81 in 7.0 mi SSE 10.4 mph - N/A   Overcast
5:55 AM 71.6 °F - 68.4 °F 89% 29.81 in 7.0 mi SSE 12.7 mph - N/A   Overcast
6:15 AM 71.8 °F - 68.4 °F 89% 29.81 in 7.0 mi SSE 10.4 mph - N/A   Overcast
6:35 AM 72.1 °F - 68.2 °F 87% 29.82 in 7.0 mi SSE 12.7 mph 18.4 mph N/A   Overcast
6:55 AM 72.1 °F - 68.0 °F 87% 29.82 in 5.0 mi South 9.2 mph 16.1 mph N/A   Overcast
7:15 AM 72.1 °F - 68.5 °F 88% 29.82 in 5.0 mi SSE 10.4 mph - N/A   Overcast
7:35 AM 72.1 °F - 68.4 °F 88% 29.83 in 5.0 mi SSE 10.4 mph - N/A   Overcast
7:55 AM 72.5 °F - 68.2 °F 86% 29.84 in 7.0 mi SSE 12.7 mph 16.1 mph N/A   Overcast
8:15 AM 72.5 °F - 68.0 °F 86% 29.85 in 7.0 mi SSE 11.5 mph - N/A   Overcast
8:35 AM 72.7 °F - 67.8 °F 85% 29.85 in 7.0 mi SSE 12.7 mph - N/A   Overcast
8:55 AM 73.4 °F - 67.1 °F 81% 29.85 in 7.0 mi SSE 12.7 mph 17.3 mph N/A   Overcast
9:15 AM 74.3 °F - 66.7 °F 77% 29.85 in 10.0 mi SSE 10.4 mph - N/A   Overcast
9:35 AM 74.7 °F - 66.4 °F 75% 29.85 in 10.0 mi South 16.1 mph 20.7 mph N/A   Overcast
9:55 AM 74.7 °F - 65.8 °F 74% 29.85 in 10.0 mi SSE 17.3 mph 23.0 mph N/A   Overcast
10:15 AM 75.2 °F - 66.4 °F 74% 29.85 in 10.0 mi SSE 17.3 mph 20.7 mph N/A   Overcast
10:35 AM 76.3 °F - 66.9 °F 73% 29.85 in 10.0 mi SSE 13.8 mph 18.4 mph N/A   Overcast
10:55 AM 77.5 °F - 64.9 °F 65% 29.85 in 10.0 mi SSE 15.0 mph 26.5 mph N/A   Mostly Cloudy
11:15 AM 79.0 °F - 65.7 °F 64% 29.85 in 10.0 mi SSE 13.8 mph 23.0 mph N/A   Mostly Cloudy
11:35 AM 80.1 °F 82.1 °F 65.8 °F 62% 29.85 in 10.0 mi SSE 15.0 mph 25.3 mph N/A   Mostly Cloudy
11:55 AM 78.8 °F - 66.0 °F 65% 29.85 in 10.0 mi SSE 13.8 mph 20.7 mph N/A   Mostly Cloudy
12:15 PM 79.5 °F - 65.3 °F 62% 29.85 in 10.0 mi SSE 17.3 mph 24.2 mph N/A   Overcast
12:35 PM 79.0 °F - 64.8 °F 62% 29.85 in 10.0 mi SSE 17.3 mph 27.6 mph N/A   Overcast
12:55 PM 79.9 °F - 65.1 °F 61% 29.84 in 10.0 mi South 17.3 mph 24.2 mph N/A   Overcast
1:15 PM 79.7 °F - 65.8 °F 62% 29.84 in 10.0 mi SSE 16.1 mph 23.0 mph N/A   Overcast
1:35 PM 80.8 °F 83.1 °F 66.7 °F 62% 29.82 in 10.0 mi SSE 17.3 mph 20.7 mph N/A   Overcast
1:55 PM 82.2 °F 84.4 °F 66.0 °F 58% 29.82 in 10.0 mi SSE 17.3 mph 24.2 mph N/A   Overcast
2:15 PM 83.1 °F 85.4 °F 66.4 °F 57% 29.80 in 10.0 mi SSE 17.3 mph 24.2 mph N/A   Mostly Cloudy
2:35 PM 83.1 °F 85.7 °F 66.7 °F 58% 29.80 in 10.0 mi SSE 13.8 mph 23.0 mph N/A   Mostly Cloudy
2:55 PM 83.5 °F 85.3 °F 65.5 °F 54% 29.79 in 10.0 mi SSE 18.4 mph 26.5 mph N/A   Mostly Cloudy
3:15 PM 84.7 °F 87.1 °F 66.4 °F 54% 29.78 in 10.0 mi SSE 16.1 mph 23.0 mph N/A   Mostly Cloudy
3:35 PM 85.8 °F 87.4 °F 64.8 °F 49% 29.77 in 10.0 mi SSE 19.6 mph 28.8 mph N/A   Scattered Clouds
3:55 PM 85.6 °F 87.1 °F 64.8 °F 49% 29.76 in 10.0 mi SSE 19.6 mph 25.3 mph N/A   Scattered Clouds
4:15 PM 85.1 °F 87.1 °F 65.8 °F 52% 29.75 in 10.0 mi SSE 12.7 mph 21.9 mph N/A   Mostly Cloudy
4:35 PM 85.6 °F 87.6 °F 65.5 °F 51% 29.74 in 10.0 mi SSE 16.1 mph 21.9 mph N/A   Scattered Clouds
4:55 PM 84.4 °F 86.6 °F 65.8 °F 54% 29.74 in 10.0 mi SSE 12.7 mph 25.3 mph N/A   Scattered Clouds
5:15 PM 85.6 °F 87.6 °F 65.8 °F 51% 29.73 in 10.0 mi SSE 12.7 mph 20.7 mph N/A   Scattered Clouds
5:35 PM 85.8 °F 88.2 °F 66.2 °F 52% 29.73 in 10.0 mi SE 11.5 mph 19.6 mph N/A   Scattered Clouds
5:55 PM 85.3 °F 87.6 °F 66.2 °F 53% 29.72 in 10.0 mi SSE 13.8 mph 20.7 mph N/A   Scattered Clouds
6:15 PM 85.1 °F 87.1 °F 65.5 °F 52% 29.72 in 10.0 mi SE 13.8 mph 20.7 mph N/A   Clear
6:35 PM 84.2 °F 85.8 °F 64.9 °F 52% 29.71 in 10.0 mi SSE 13.8 mph 21.9 mph N/A   Clear
6:55 PM 84.2 °F 85.8 °F 64.8 °F 52% 29.71 in 10.0 mi SSE 16.1 mph 23.0 mph N/A   Clear
7:15 PM 83.3 °F 85.1 °F 65.1 °F 54% 29.71 in 10.0 mi SE 13.8 mph 21.9 mph N/A   Clear
7:35 PM 82.2 °F 84.0 °F 65.1 °F 56% 29.72 in 10.0 mi SSE 9.2 mph 17.3 mph N/A   Clear
7:55 PM 81.1 °F 83.1 °F 65.5 °F 59% 29.72 in 10.0 mi SE 8.1 mph - N/A   Clear
8:15 PM 80.1 °F 82.0 °F 65.3 °F 61% 29.72 in 10.0 mi SE 11.5 mph - N/A   Clear
8:35 PM 79.7 °F - 65.3 °F 61% 29.73 in 10.0 mi SE 9.2 mph - N/A   Clear
8:55 PM 78.6 °F - 65.8 °F 65% 29.73 in 10.0 mi SE 6.9 mph - N/A   Clear
9:15 PM 78.1 °F - 66.2 °F 67% 29.73 in 10.0 mi SE 10.4 mph - N/A   Clear
9:35 PM 78.1 °F - 66.4 °F 67% 29.74 in 10.0 mi SE 10.4 mph 17.3 mph N/A   Clear
9:55 PM 77.9 °F - 66.2 °F 67% 29.75 in 10.0 mi SE 12.7 mph 18.4 mph N/A   Clear
10:15 PM 77.0 °F - 66.4 °F 70% 29.76 in 10.0 mi SE 11.5 mph 16.1 mph N/A   Clear
10:35 PM 76.6 °F - 67.1 °F 72% 29.77 in 10.0 mi SE 11.5 mph 19.6 mph N/A   Clear
10:55 PM 76.3 °F - 67.1 °F 73% 29.78 in 10.0 mi SE 11.5 mph 20.7 mph N/A   Clear
11:15 PM 76.1 °F - 67.3 °F 74% 29.78 in 10.0 mi SSE 12.7 mph 18.4 mph N/A   Clear
11:35 PM 75.7 °F - 67.3 °F 75% 29.78 in 10.0 mi SSE 13.8 mph 21.9 mph N/A   Clear
11:55 PM 75.2 °F - 67.3 °F 76% 29.77 in 10.0 mi SSE 12.7 mph 20.7 mph N/A   Clear